owner,sensor,date,latitude,longitude,vertical_datum,sea_water_practical_salinity,qcFlag 
NERRS,ioos:station:NOAA.NERRS:rkblhwq:1,2016-05-01T00:45:00Z,26.0257,-81.7332,1.24,46.5,1111122 
NERRS,ioos:station:NOAA.NERRS:rkblhwq:1,2016-05-01T01:45:00Z,26.0257,-81.7332,1.22,45.8,1111122 
NERRS,ioos:station:NOAA.NERRS:rkblhwq:1,2016-05-01T02:45:00Z,26.0257,-81.7332,1.14,45.6,1111122 
NERRS,ioos:station:NOAA.NERRS:rkblhwq:1,2016-05-01T03:45:00Z,26.0257,-81.7332,1.02,45.5,1111122 
NERRS,ioos:station:NOAA.NERRS:rkblhwq:1,2016-05-01T04:45:00Z,26.0257,-81.7332,0.89,45.7,1111122 
NERRS,ioos:station:NOAA.NERRS:rkblhwq:1,2016-05-01T05:45:00Z,26.0257,-81.7332,0.76,45.9,1111122 
NERRS,ioos:station:NOAA.NERRS:rkblhwq:1,2016-05-01T06:45:00Z,26.0257,-81.7332,0.64,46.1,1111122 
NERRS,ioos:station:NOAA.NERRS:rkblhwq:1,2016-05-01T07:45:00Z,26.0257,-81.7332,0.55,46.4,1111122 
NERRS,ioos:station:NOAA.NERRS:rkblhwq:1,2016-05-01T08:45:00Z,26.0257,-81.7332,0.54,46.3,1111122 
NERRS,ioos:station:NOAA.NERRS:rkblhwq:1,2016-05-01T09:45:00Z,26.0257,-81.7332,0.64,46.2,1111122 
NERRS,ioos:station:NOAA.NERRS:rkblhwq:1,2016-05-01T10:45:00Z,26.0257,-81.7332,0.76,46.4,1111122 
NERRS,ioos:station:NOAA.NERRS:rkblhwq:1,2016-05-01T11:45:00Z,26.0257,-81.7332,0.91,46.6,1111122 
NERRS,ioos:station:NOAA.NERRS:rkblhwq:1,2016-05-01T12:45:00Z,26.0257,-81.7332,1.04,46.9,1111122 
NERRS,ioos:station:NOAA.NERRS:rkblhwq:1,2016-05-01T13:45:00Z,26.0257,-81.7332,1.14,47.0,1111122 
NERRS,ioos:station:NOAA.NERRS:rkblhwq:1,2016-05-01T14:45:00Z,26.0257,-81.7332,1.2,47.4,1111122 
NERRS,ioos:station:NOAA.NERRS:rkblhwq:1,2016-05-01T15:45:00Z,26.0257,-81.7332,1.18,47.3,1111122 
NERRS,ioos:station:NOAA.NERRS:rkblhwq:1,2016-05-01T16:45:00Z,26.0257,-81.7332,1.08,47.4,1111122 
NERRS,ioos:station:NOAA.NERRS:rkblhwq:1,2016-05-01T17:45:00Z,26.0257,-81.7332,0.99,47.5,1111122 
NERRS,ioos:station:NOAA.NERRS:rkblhwq:1,2016-05-01T18:45:00Z,26.0257,-81.7332,0.89,47.6,1111122 
NERRS,ioos:station:NOAA.NERRS:rkblhwq:1,2016-05-01T19:45:00Z,26.0257,-81.7332,0.83,48.1,1111122 
NERRS,ioos:station:NOAA.NERRS:rkblhwq:1,2016-05-01T20:45:00Z,26.0257,-81.7332,0.85,47.7,1111122 
NERRS,ioos:station:NOAA.NERRS:rkblhwq:1,2016-05-01T21:45:00Z,26.0257,-81.7332,0.94,47.8,1111122 
NERRS,ioos:station:NOAA.NERRS:rkblhwq:1,2016-05-01T22:45:00Z,26.0257,-81.7332,1.04,47.8,1111122 
NERRS,ioos:station:NOAA.NERRS:rkblhwq:1,2016-05-01T23:45:00Z,26.0257,-81.7332,1.14,48.0,1111122 
NERRS,ioos:station:NOAA.NERRS:rkblhwq:1,2016-05-02T00:45:00Z,26.0257,-81.7332,1.24,48.3,1111122 
NERRS,ioos:station:NOAA.NERRS:rkblhwq:1,2016-05-02T01:45:00Z,26.0257,-81.7332,1.29,48.9,1111122 
NERRS,ioos:station:NOAA.NERRS:rkblhwq:1,2016-05-02T02:45:00Z,26.0257,-81.7332,1.3,49.0,1111122 
NERRS,ioos:station:NOAA.NERRS:rkblhwq:1,2016-05-02T03:45:00Z,26.0257,-81.7332,1.23,48.7,1111122 
NERRS,ioos:station:NOAA.NERRS:rkblhwq:1,2016-05-02T04:45:00Z,26.0257,-81.7332,1.13,48.7,1111122 
NERRS,ioos:station:NOAA.NERRS:rkblhwq:1,2016-05-02T05:45:00Z,26.0257,-81.7332,0.99,48.7,1111122 
NERRS,ioos:station:NOAA.NERRS:rkblhwq:1,2016-05-02T06:45:00Z,26.0257,-81.7332,0.84,49.0,1111122 
NERRS,ioos:station:NOAA.NERRS:rkblhwq:1,2016-05-02T07:45:00Z,26.0257,-81.7332,0.7,49.2,1111122 
NERRS,ioos:station:NOAA.NERRS:rkblhwq:1,2016-05-02T08:45:00Z,26.0257,-81.7332,0.61,49.6,1111122 
NERRS,ioos:station:NOAA.NERRS:rkblhwq:1,2016-05-02T09:45:00Z,26.0257,-81.7332,0.61,49.5,1111122 
NERRS,ioos:station:NOAA.NERRS:rkblhwq:1,2016-05-02T10:45:00Z,26.0257,-81.7332,0.71,49.3,1111122 
NERRS,ioos:station:NOAA.NERRS:rkblhwq:1,2016-05-02T11:45:00Z,26.0257,-81.7332,0.84,49.5,1111122 
NERRS,ioos:station:NOAA.NERRS:rkblhwq:1,2016-05-02T12:45:00Z,26.0257,-81.7332,1.0,49.7,1111122 
NERRS,ioos:station:NOAA.NERRS:rkblhwq:1,2016-05-02T13:45:00Z,26.0257,-81.7332,1.14,50.0,1111122 
NERRS,ioos:station:NOAA.NERRS:rkblhwq:1,2016-05-02T14:45:00Z,26.0257,-81.7332,1.24,49.8,1111122 
NERRS,ioos:station:NOAA.NERRS:rkblhwq:1,2016-05-02T15:45:00Z,26.0257,-81.7332,1.29,51.0,1111122 
NERRS,ioos:station:NOAA.NERRS:rkblhwq:1,2016-05-02T16:45:00Z,26.0257,-81.7332,1.23,50.3,1111122 
NERRS,ioos:station:NOAA.NERRS:rkblhwq:1,2016-05-02T17:45:00Z,26.0257,-81.7332,1.13,50.5,1111122 
NERRS,ioos:station:NOAA.NERRS:rkblhwq:1,2016-05-02T18:45:00Z,26.0257,-81.7332,1.01,50.4,1111122 
NERRS,ioos:station:NOAA.NERRS:rkblhwq:1,2016-05-02T19:45:00Z,26.0257,-81.7332,0.88,50.6,1111122 
NERRS,ioos:station:NOAA.NERRS:rkblhwq:1,2016-05-02T20:45:00Z,26.0257,-81.7332,0.76,50.9,1111122 
NERRS,ioos:station:NOAA.NERRS:rkblhwq:1,2016-05-02T21:45:00Z,26.0257,-81.7332,0.71,51.7,1111122 
NERRS,ioos:station:NOAA.NERRS:rkblhwq:1,2016-05-02T22:45:00Z,26.0257,-81.7332,0.78,50.6,1111122 
NERRS,ioos:station:NOAA.NERRS:rkblhwq:1,2016-05-02T23:45:00Z,26.0257,-81.7332,0.91,51.0,1111122 
NERRS,ioos:station:NOAA.NERRS:rkblhwq:1,2016-05-03T00:45:00Z,26.0257,-81.7332,1.04,50.9,1111122 
NERRS,ioos:station:NOAA.NERRS:rkblhwq:1,2016-05-03T01:45:00Z,26.0257,-81.7332,1.17,51.0,1111122 
NERRS,ioos:station:NOAA.NERRS:rkblhwq:1,2016-05-03T02:45:00Z,26.0257,-81.7332,1.26,51.4,1111122 
NERRS,ioos:station:NOAA.NERRS:rkblhwq:1,2016-05-03T03:45:00Z,26.0257,-81.7332,1.29,52.1,1111122 
NERRS,ioos:station:NOAA.NERRS:rkblhwq:1,2016-05-03T04:45:00Z,26.0257,-81.7332,1.23,51.5,1111122 
NERRS,ioos:station:NOAA.NERRS:rkblhwq:1,2016-05-03T05:45:00Z,26.0257,-81.7332,1.13,51.5,1111122 
NERRS,ioos:station:NOAA.NERRS:rkblhwq:1,2016-05-03T06:45:00Z,26.0257,-81.7332,0.99,51.5,1111122 
NERRS,ioos:station:NOAA.NERRS:rkblhwq:1,2016-05-03T07:45:00Z,26.0257,-81.7332,0.84,51.7,1111122 
NERRS,ioos:station:NOAA.NERRS:rkblhwq:1,2016-05-03T08:45:00Z,26.0257,-81.7332,0.71,52.0,1111122 
NERRS,ioos:station:NOAA.NERRS:rkblhwq:1,2016-05-03T09:45:00Z,26.0257,-81.7332,0.63,52.7,1111122 
NERRS,ioos:station:NOAA.NERRS:rkblhwq:1,2016-05-03T10:45:00Z,26.0257,-81.7332,0.65,51.9,1111122 
NERRS,ioos:station:NOAA.NERRS:rkblhwq:1,2016-05-03T11:45:00Z,26.0257,-81.7332,0.78,52.0,1111122 
NERRS,ioos:station:NOAA.NERRS:rkblhwq:1,2016-05-03T12:45:00Z,26.0257,-81.7332,0.93,52.3,1111122 
NERRS,ioos:station:NOAA.NERRS:rkblhwq:1,2016-05-03T13:45:00Z,26.0257,-81.7332,1.06,52.6,1111122 
NERRS,ioos:station:NOAA.NERRS:rkblhwq:1,2016-05-03T14:45:00Z,26.0257,-81.7332,1.2,52.7,1111122 
NERRS,ioos:station:NOAA.NERRS:rkblhwq:1,2016-05-03T15:45:00Z,26.0257,-81.7332,1.28,52.6,1111122 
NERRS,ioos:station:NOAA.NERRS:rkblhwq:1,2016-05-03T16:45:00Z,26.0257,-81.7332,1.3,53.3,1111122 
NERRS,ioos:station:NOAA.NERRS:rkblhwq:1,2016-05-03T17:45:00Z,26.0257,-81.7332,1.21,52.7,1111122 
NERRS,ioos:station:NOAA.NERRS:rkblhwq:1,2016-05-03T18:45:00Z,26.0257,-81.7332,1.08,52.8,1111122 
NERRS,ioos:station:NOAA.NERRS:rkblhwq:1,2016-05-03T19:45:00Z,26.0257,-81.7332,0.93,52.8,1111122 
NERRS,ioos:station:NOAA.NERRS:rkblhwq:1,2016-05-03T20:45:00Z,26.0257,-81.7332,0.78,53.0,1111122 
NERRS,ioos:station:NOAA.NERRS:rkblhwq:1,2016-05-03T21:45:00Z,26.0257,-81.7332,0.65,53.3,1111122 
NERRS,ioos:station:NOAA.NERRS:rkblhwq:1,2016-05-03T22:45:00Z,26.0257,-81.7332,0.6,54.0,1111122 
NERRS,ioos:station:NOAA.NERRS:rkblhwq:1,2016-05-03T23:45:00Z,26.0257,-81.7332,0.68,52.9,1111122 
NERRS,ioos:station:NOAA.NERRS:rkblhwq:1,2016-05-04T00:45:00Z,26.0257,-81.7332,0.81,53.1,1111122 
NERRS,ioos:station:NOAA.NERRS:rkblhwq:1,2016-05-04T01:45:00Z,26.0257,-81.7332,0.96,53.2,1111122 
NERRS,ioos:station:NOAA.NERRS:rkblhwq:1,2016-05-04T02:45:00Z,26.0257,-81.7332,1.11,53.2,1111122 
NERRS,ioos:station:NOAA.NERRS:rkblhwq:1,2016-05-04T03:45:00Z,26.0257,-81.7332,1.21,53.5,1111122 
NERRS,ioos:station:NOAA.NERRS:rkblhwq:1,2016-05-04T04:45:00Z,26.0257,-81.7332,1.26,53.5,1111122 
NERRS,ioos:station:NOAA.NERRS:rkblhwq:1,2016-05-04T05:45:00Z,26.0257,-81.7332,1.23,53.9,1111122 
NERRS,ioos:station:NOAA.NERRS:rkblhwq:1,2016-05-04T06:45:00Z,26.0257,-81.7332,1.13,53.6,1111122 
NERRS,ioos:station:NOAA.NERRS:rkblhwq:1,2016-05-04T07:45:00Z,26.0257,-81.7332,0.99,53.6,1111122 
NERRS,ioos:station:NOAA.NERRS:rkblhwq:1,2016-05-04T08:45:00Z,26.0257,-81.7332,0.83,53.9,1111122 
NERRS,ioos:station:NOAA.NERRS:rkblhwq:1,2016-05-04T09:45:00Z,26.0257,-81.7332,0.69,54.3,1111122 
NERRS,ioos:station:NOAA.NERRS:rkblhwq:1,2016-05-04T10:45:00Z,26.0257,-81.7332,0.6,54.7,1111122 
NERRS,ioos:station:NOAA.NERRS:rkblhwq:1,2016-05-04T11:45:00Z,26.0257,-81.7332,0.67,54.0,1111122 
NERRS,ioos:station:NOAA.NERRS:rkblhwq:1,2016-05-04T12:45:00Z,26.0257,-81.7332,0.82,54.1,1111122 
NERRS,ioos:station:NOAA.NERRS:rkblhwq:1,2016-05-04T13:45:00Z,26.0257,-81.7332,0.98,54.1,1111122 
NERRS,ioos:station:NOAA.NERRS:rkblhwq:1,2016-05-04T14:45:00Z,26.0257,-81.7332,1.15,54.3,1111122 
NERRS,ioos:station:NOAA.NERRS:rkblhwq:1,2016-05-04T15:45:00Z,26.0257,-81.7332,1.25,54.5,1111122 
NERRS,ioos:station:NOAA.NERRS:rkblhwq:1,2016-05-04T16:45:00Z,26.0257,-81.7332,1.29,54.5,1111122 
NERRS,ioos:station:NOAA.NERRS:rkblhwq:1,2016-05-04T17:45:00Z,26.0257,-81.7332,1.25,54.8,1111122 
NERRS,ioos:station:NOAA.NERRS:rkblhwq:1,2016-05-04T18:45:00Z,26.0257,-81.7332,1.21,54.7,1111122 
NERRS,ioos:station:NOAA.NERRS:rkblhwq:1,2016-05-04T19:45:00Z,26.0257,-81.7332,1.12,54.4,1111122 
NERRS,ioos:station:NOAA.NERRS:rkblhwq:1,2016-05-04T20:45:00Z,26.0257,-81.7332,0.94,54.4,1111122 
NERRS,ioos:station:NOAA.NERRS:rkblhwq:1,2016-05-04T21:45:00Z,26.0257,-81.7332,0.76,54.2,1111122 
NERRS,ioos:station:NOAA.NERRS:rkblhwq:1,2016-05-04T22:45:00Z,26.0257,-81.7332,0.63,54.5,1111122 
NERRS,ioos:station:NOAA.NERRS:rkblhwq:1,2016-05-04T23:45:00Z,26.0257,-81.7332,0.62,54.5,1111122 
NERRS,ioos:station:NOAA.NERRS:rkblhwq:1,2016-05-05T00:45:00Z,26.0257,-81.7332,0.8,54.0,1111122 
NERRS,ioos:station:NOAA.NERRS:rkblhwq:1,2016-05-05T01:45:00Z,26.0257,-81.7332,1.01,54.5,1111122 
NERRS,ioos:station:NOAA.NERRS:rkblhwq:1,2016-05-05T02:45:00Z,26.0257,-81.7332,1.18,54.2,1111122 
NERRS,ioos:station:NOAA.NERRS:rkblhwq:1,2016-05-05T03:45:00Z,26.0257,-81.7332,1.3,54.1,1111122 
NERRS,ioos:station:NOAA.NERRS:rkblhwq:1,2016-05-05T04:45:00Z,26.0257,-81.7332,1.35,54.0,1111122 
NERRS,ioos:station:NOAA.NERRS:rkblhwq:1,2016-05-05T05:45:00Z,26.0257,-81.7332,1.33,54.4,1111122 
NERRS,ioos:station:NOAA.NERRS:rkblhwq:1,2016-05-05T06:45:00Z,26.0257,-81.7332,1.25,54.7,1111122 
NERRS,ioos:station:NOAA.NERRS:rkblhwq:1,2016-05-05T07:45:00Z,26.0257,-81.7332,1.16,54.6,1111122 
NERRS,ioos:station:NOAA.NERRS:rkblhwq:1,2016-05-05T08:45:00Z,26.0257,-81.7332,1.04,54.6,1111122 
NERRS,ioos:station:NOAA.NERRS:rkblhwq:1,2016-05-05T09:45:00Z,26.0257,-81.7332,0.88,54.7,1111122 
NERRS,ioos:station:NOAA.NERRS:rkblhwq:1,2016-05-05T10:45:00Z,26.0257,-81.7332,0.73,54.9,1111122 
NERRS,ioos:station:NOAA.NERRS:rkblhwq:1,2016-05-05T12:45:00Z,26.0257,-81.7332,0.65,55.1,1111122 
NERRS,ioos:station:NOAA.NERRS:rkblhwq:1,2016-05-05T13:45:00Z,26.0257,-81.7332,0.81,55.0,1111122 
NERRS,ioos:station:NOAA.NERRS:rkblhwq:1,2016-05-05T14:45:00Z,26.0257,-81.7332,0.99,55.4,1111122 
NERRS,ioos:station:NOAA.NERRS:rkblhwq:1,2016-05-05T15:45:00Z,26.0257,-81.7332,1.14,55.4,1111122 
NERRS,ioos:station:NOAA.NERRS:rkblhwq:1,2016-05-05T16:45:00Z,26.0257,-81.7332,1.21,55.6,1111122 
NERRS,ioos:station:NOAA.NERRS:rkblhwq:1,2016-05-05T17:45:00Z,26.0257,-81.7332,1.18,55.6,1111122 
NERRS,ioos:station:NOAA.NERRS:rkblhwq:1,2016-05-05T18:45:00Z,26.0257,-81.7332,1.09,55.5,1111122 
NERRS,ioos:station:NOAA.NERRS:rkblhwq:1,2016-05-05T19:45:00Z,26.0257,-81.7332,0.95,55.5,1111122 
NERRS,ioos:station:NOAA.NERRS:rkblhwq:1,2016-05-05T20:45:00Z,26.0257,-81.7332,0.78,55.5,1111122 
NERRS,ioos:station:NOAA.NERRS:rkblhwq:1,2016-05-05T21:45:00Z,26.0257,-81.7332,0.62,55.5,1111122 
NERRS,ioos:station:NOAA.NERRS:rkblhwq:1,2016-05-05T22:45:00Z,26.0257,-81.7332,0.48,55.6,1111122 
NERRS,ioos:station:NOAA.NERRS:rkblhwq:1,2016-05-05T23:45:00Z,26.0257,-81.7332,0.38,55.8,1111122 
NERRS,ioos:station:NOAA.NERRS:rkblhwq:1,2016-05-06T00:45:00Z,26.0257,-81.7332,0.39,55.9,1111122 
NERRS,ioos:station:NOAA.NERRS:rkblhwq:1,2016-05-06T01:45:00Z,26.0257,-81.7332,0.51,55.7,1111122 
NERRS,ioos:station:NOAA.NERRS:rkblhwq:1,2016-05-06T02:45:00Z,26.0257,-81.7332,0.67,56.1,1111122 
NERRS,ioos:station:NOAA.NERRS:rkblhwq:1,2016-05-06T03:45:00Z,26.0257,-81.7332,0.86,56.0,1111122 
NERRS,ioos:station:NOAA.NERRS:rkblhwq:1,2016-05-06T04:45:00Z,26.0257,-81.7332,1.05,56.2,1111122 
NERRS,ioos:station:NOAA.NERRS:rkblhwq:1,2016-05-06T05:45:00Z,26.0257,-81.7332,1.19,56.2,1111122 
NERRS,ioos:station:NOAA.NERRS:rkblhwq:1,2016-05-06T06:45:00Z,26.0257,-81.7332,1.24,56.4,1111122 
NERRS,ioos:station:NOAA.NERRS:rkblhwq:1,2016-05-06T07:45:00Z,26.0257,-81.7332,1.16,56.3,1111122 
NERRS,ioos:station:NOAA.NERRS:rkblhwq:1,2016-05-06T08:45:00Z,26.0257,-81.7332,1.04,56.2,1111122 
NERRS,ioos:station:NOAA.NERRS:rkblhwq:1,2016-05-06T09:45:00Z,26.0257,-81.7332,0.91,56.4,1111122 
NERRS,ioos:station:NOAA.NERRS:rkblhwq:1,2016-05-06T10:45:00Z,26.0257,-81.7332,0.78,56.4,1111122 
NERRS,ioos:station:NOAA.NERRS:rkblhwq:1,2016-05-06T11:45:00Z,26.0257,-81.7332,0.7,56.6,1111122 
NERRS,ioos:station:NOAA.NERRS:rkblhwq:1,2016-05-06T12:45:00Z,26.0257,-81.7332,0.72,56.8,1111122 
NERRS,ioos:station:NOAA.NERRS:rkblhwq:1,2016-05-06T13:45:00Z,26.0257,-81.7332,0.81,56.7,1111122 
NERRS,ioos:station:NOAA.NERRS:rkblhwq:1,2016-05-06T15:45:00Z,26.0257,-81.7332,1.1,56.7,1111122 
NERRS,ioos:station:NOAA.NERRS:rkblhwq:1,2016-05-06T16:45:00Z,26.0257,-81.7332,1.22,56.7,1111122 
NERRS,ioos:station:NOAA.NERRS:rkblhwq:1,2016-05-06T17:45:00Z,26.0257,-81.7332,1.27,56.8,1111122 
NERRS,ioos:station:NOAA.NERRS:rkblhwq:1,2016-05-06T18:45:00Z,26.0257,-81.7332,1.24,57.0,1111122 
NERRS,ioos:station:NOAA.NERRS:rkblhwq:1,2016-05-06T19:45:00Z,26.0257,-81.7332,1.13,56.9,1111122 
NERRS,ioos:station:NOAA.NERRS:rkblhwq:1,2016-05-06T20:45:00Z,26.0257,-81.7332,0.98,56.8,1111122 
NERRS,ioos:station:NOAA.NERRS:rkblhwq:1,2016-05-06T21:45:00Z,26.0257,-81.7332,0.82,56.9,1111122 
NERRS,ioos:station:NOAA.NERRS:rkblhwq:1,2016-05-06T22:45:00Z,26.0257,-81.7332,0.65,56.9,1111122 
NERRS,ioos:station:NOAA.NERRS:rkblhwq:1,2016-05-06T23:45:00Z,26.0257,-81.7332,0.5,57.0,1111122 
NERRS,ioos:station:NOAA.NERRS:rkblhwq:1,2016-05-07T00:45:00Z,26.0257,-81.7332,0.38,57.1,1111122 
NERRS,ioos:station:NOAA.NERRS:rkblhwq:1,2016-05-07T01:45:00Z,26.0257,-81.7332,0.35,57.3,1111122 
NERRS,ioos:station:NOAA.NERRS:rkblhwq:1,2016-05-07T02:45:00Z,26.0257,-81.7332,0.45,57.0,1111122 
NERRS,ioos:station:NOAA.NERRS:rkblhwq:1,2016-05-07T03:45:00Z,26.0257,-81.7332,0.61,57.3,1111122 
NERRS,ioos:station:NOAA.NERRS:rkblhwq:1,2016-05-07T04:45:00Z,26.0257,-81.7332,0.81,57.3,1111122 
NERRS,ioos:station:NOAA.NERRS:rkblhwq:1,2016-05-07T05:45:00Z,26.0257,-81.7332,1.01,57.2,1111122 
NERRS,ioos:station:NOAA.NERRS:rkblhwq:1,2016-05-07T06:45:00Z,26.0257,-81.7332,1.15,57.3,1111122 
NERRS,ioos:station:NOAA.NERRS:rkblhwq:1,2016-05-07T07:45:00Z,26.0257,-81.7332,1.19,57.4,1111122 
NERRS,ioos:station:NOAA.NERRS:rkblhwq:1,2016-05-07T08:45:00Z,26.0257,-81.7332,1.08,57.3,1111122 
NERRS,ioos:station:NOAA.NERRS:rkblhwq:1,2016-05-07T09:45:00Z,26.0257,-81.7332,0.96,57.3,1111122 
NERRS,ioos:station:NOAA.NERRS:rkblhwq:1,2016-05-07T10:45:00Z,26.0257,-81.7332,0.83,57.5,1111122 
NERRS,ioos:station:NOAA.NERRS:rkblhwq:1,2016-05-07T11:45:00Z,26.0257,-81.7332,0.72,57.5,1111122 
NERRS,ioos:station:NOAA.NERRS:rkblhwq:1,2016-05-07T12:45:00Z,26.0257,-81.7332,0.66,57.7,1111122 
NERRS,ioos:station:NOAA.NERRS:rkblhwq:1,2016-05-07T13:45:00Z,26.0257,-81.7332,0.72,57.5,1111122 
NERRS,ioos:station:NOAA.NERRS:rkblhwq:1,2016-05-07T14:45:00Z,26.0257,-81.7332,0.86,57.6,1111122 
NERRS,ioos:station:NOAA.NERRS:rkblhwq:1,2016-05-07T15:45:00Z,26.0257,-81.7332,1.01,57.6,1111122 
NERRS,ioos:station:NOAA.NERRS:rkblhwq:1,2016-05-07T16:45:00Z,26.0257,-81.7332,1.16,57.5,1111122 
NERRS,ioos:station:NOAA.NERRS:rkblhwq:1,2016-05-07T17:45:00Z,26.0257,-81.7332,1.26,57.4,1111122 
NERRS,ioos:station:NOAA.NERRS:rkblhwq:1,2016-05-07T18:45:00Z,26.0257,-81.7332,1.3,57.5,1111122 
NERRS,ioos:station:NOAA.NERRS:rkblhwq:1,2016-05-07T19:45:00Z,26.0257,-81.7332,1.25,57.8,1111122 
NERRS,ioos:station:NOAA.NERRS:rkblhwq:1,2016-05-07T20:45:00Z,26.0257,-81.7332,1.14,57.6,1111122 
NERRS,ioos:station:NOAA.NERRS:rkblhwq:1,2016-05-07T21:45:00Z,26.0257,-81.7332,0.99,57.6,1111122 
NERRS,ioos:station:NOAA.NERRS:rkblhwq:1,2016-05-07T22:45:00Z,26.0257,-81.7332,0.81,57.7,1111122 
NERRS,ioos:station:NOAA.NERRS:rkblhwq:1,2016-05-07T23:45:00Z,26.0257,-81.7332,0.64,57.8,1111122 
NERRS,ioos:station:NOAA.NERRS:rkblhwq:1,2016-05-08T00:45:00Z,26.0257,-81.7332,0.5,58.0,1111122 
NERRS,ioos:station:NOAA.NERRS:rkblhwq:1,2016-05-08T01:45:00Z,26.0257,-81.7332,0.39,58.0,1111122 
NERRS,ioos:station:NOAA.NERRS:rkblhwq:1,2016-05-08T02:45:00Z,26.0257,-81.7332,0.39,58.1,1111122 
NERRS,ioos:station:NOAA.NERRS:rkblhwq:1,2016-05-08T03:45:00Z,26.0257,-81.7332,0.5,57.7,1111122 
NERRS,ioos:station:NOAA.NERRS:rkblhwq:1,2016-05-08T04:45:00Z,26.0257,-81.7332,0.66,57.9,1111122 
NERRS,ioos:station:NOAA.NERRS:rkblhwq:1,2016-05-08T05:45:00Z,26.0257,-81.7332,0.84,57.9,1111122 
NERRS,ioos:station:NOAA.NERRS:rkblhwq:1,2016-05-08T06:45:00Z,26.0257,-81.7332,1.03,57.8,1111122 
NERRS,ioos:station:NOAA.NERRS:rkblhwq:1,2016-05-08T07:45:00Z,26.0257,-81.7332,1.16,57.9,1111122 
NERRS,ioos:station:NOAA.NERRS:rkblhwq:1,2016-05-08T08:45:00Z,26.0257,-81.7332,1.17,58.0,1111122 
NERRS,ioos:station:NOAA.NERRS:rkblhwq:1,2016-05-08T09:45:00Z,26.0257,-81.7332,1.06,57.9,1111122 
NERRS,ioos:station:NOAA.NERRS:rkblhwq:1,2016-05-08T10:45:00Z,26.0257,-81.7332,0.95,58.0,1111122 
NERRS,ioos:station:NOAA.NERRS:rkblhwq:1,2016-05-08T11:45:00Z,26.0257,-81.7332,0.84,58.1,1111122 
NERRS,ioos:station:NOAA.NERRS:rkblhwq:1,2016-05-08T12:45:00Z,26.0257,-81.7332,0.74,58.2,1111122 
NERRS,ioos:station:NOAA.NERRS:rkblhwq:1,2016-05-08T13:45:00Z,26.0257,-81.7332,0.72,58.4,1111122 
NERRS,ioos:station:NOAA.NERRS:rkblhwq:1,2016-05-08T14:45:00Z,26.0257,-81.7332,0.82,58.1,1111122 
NERRS,ioos:station:NOAA.NERRS:rkblhwq:1,2016-05-08T15:45:00Z,26.0257,-81.7332,0.96,58.1,1111122 
NERRS,ioos:station:NOAA.NERRS:rkblhwq:1,2016-05-08T16:45:00Z,26.0257,-81.7332,1.1,58.2,1111122 
NERRS,ioos:station:NOAA.NERRS:rkblhwq:1,2016-05-08T17:45:00Z,26.0257,-81.7332,1.22,58.0,1111122 
NERRS,ioos:station:NOAA.NERRS:rkblhwq:1,2016-05-08T18:45:00Z,26.0257,-81.7332,1.3,57.9,1111122 
NERRS,ioos:station:NOAA.NERRS:rkblhwq:1,2016-05-08T19:45:00Z,26.0257,-81.7332,1.3,58.0,1111122 
NERRS,ioos:station:NOAA.NERRS:rkblhwq:1,2016-05-08T20:45:00Z,26.0257,-81.7332,1.22,58.1,1111122 
NERRS,ioos:station:NOAA.NERRS:rkblhwq:1,2016-05-08T21:45:00Z,26.0257,-81.7332,1.1,58.0,1111122 
NERRS,ioos:station:NOAA.NERRS:rkblhwq:1,2016-05-08T22:45:00Z,26.0257,-81.7332,0.93,58.1,1111122 
NERRS,ioos:station:NOAA.NERRS:rkblhwq:1,2016-05-08T23:45:00Z,26.0257,-81.7332,0.76,58.6,1111122 
NERRS,ioos:station:NOAA.NERRS:rkblhwq:1,2016-05-09T00:45:00Z,26.0257,-81.7332,0.6,58.5,1111122 
NERRS,ioos:station:NOAA.NERRS:rkblhwq:1,2016-05-09T01:45:00Z,26.0257,-81.7332,0.46,58.6,1111122 
NERRS,ioos:station:NOAA.NERRS:rkblhwq:1,2016-05-09T02:45:00Z,26.0257,-81.7332,0.37,58.6,1111122 
NERRS,ioos:station:NOAA.NERRS:rkblhwq:1,2016-05-09T03:45:00Z,26.0257,-81.7332,0.41,58.3,1111122 
NERRS,ioos:station:NOAA.NERRS:rkblhwq:1,2016-05-09T04:45:00Z,26.0257,-81.7332,0.55,58.3,1111122 
NERRS,ioos:station:NOAA.NERRS:rkblhwq:1,2016-05-09T05:45:00Z,26.0257,-81.7332,0.72,58.4,1111122 
NERRS,ioos:station:NOAA.NERRS:rkblhwq:1,2016-05-09T06:45:00Z,26.0257,-81.7332,0.91,58.4,1111122 
NERRS,ioos:station:NOAA.NERRS:rkblhwq:1,2016-05-09T07:45:00Z,26.0257,-81.7332,1.08,58.3,1111122 
NERRS,ioos:station:NOAA.NERRS:rkblhwq:1,2016-05-09T08:45:00Z,26.0257,-81.7332,1.17,58.3,1111122 
NERRS,ioos:station:NOAA.NERRS:rkblhwq:1,2016-05-09T09:45:00Z,26.0257,-81.7332,1.14,58.4,1111122 
NERRS,ioos:station:NOAA.NERRS:rkblhwq:1,2016-05-09T10:45:00Z,26.0257,-81.7332,1.04,58.4,1111122 
NERRS,ioos:station:NOAA.NERRS:rkblhwq:1,2016-05-09T11:45:00Z,26.0257,-81.7332,0.95,58.4,1111122 
NERRS,ioos:station:NOAA.NERRS:rkblhwq:1,2016-05-09T12:45:00Z,26.0257,-81.7332,0.86,58.5,1111122 
NERRS,ioos:station:NOAA.NERRS:rkblhwq:1,2016-05-09T13:45:00Z,26.0257,-81.7332,0.8,58.5,1111122 
NERRS,ioos:station:NOAA.NERRS:rkblhwq:1,2016-05-09T14:45:00Z,26.0257,-81.7332,0.85,58.4,1111122 
NERRS,ioos:station:NOAA.NERRS:rkblhwq:1,2016-05-09T15:45:00Z,26.0257,-81.7332,0.97,58.4,1111122 
NERRS,ioos:station:NOAA.NERRS:rkblhwq:1,2016-05-09T16:45:00Z,26.0257,-81.7332,1.09,58.3,1111122 
NERRS,ioos:station:NOAA.NERRS:rkblhwq:1,2016-05-09T17:45:00Z,26.0257,-81.7332,1.21,58.3,1111122 
NERRS,ioos:station:NOAA.NERRS:rkblhwq:1,2016-05-09T18:45:00Z,26.0257,-81.7332,1.3,58.0,1111122 
NERRS,ioos:station:NOAA.NERRS:rkblhwq:1,2016-05-09T19:45:00Z,26.0257,-81.7332,1.33,58.0,1111122 
NERRS,ioos:station:NOAA.NERRS:rkblhwq:1,2016-05-09T20:45:00Z,26.0257,-81.7332,1.31,58.2,1111122 
NERRS,ioos:station:NOAA.NERRS:rkblhwq:1,2016-05-09T21:45:00Z,26.0257,-81.7332,1.21,58.2,1111122 
NERRS,ioos:station:NOAA.NERRS:rkblhwq:1,2016-05-09T22:45:00Z,26.0257,-81.7332,1.07,58.1,1111122 
NERRS,ioos:station:NOAA.NERRS:rkblhwq:1,2016-05-09T23:45:00Z,26.0257,-81.7332,0.92,58.3,1111122 
NERRS,ioos:station:NOAA.NERRS:rkblhwq:1,2016-05-10T00:45:00Z,26.0257,-81.7332,0.76,58.6,1111122 
NERRS,ioos:station:NOAA.NERRS:rkblhwq:1,2016-05-10T01:45:00Z,26.0257,-81.7332,0.61,58.8,1111122 
NERRS,ioos:station:NOAA.NERRS:rkblhwq:1,2016-05-10T02:45:00Z,26.0257,-81.7332,0.47,58.7,1111122 
NERRS,ioos:station:NOAA.NERRS:rkblhwq:1,2016-05-10T03:45:00Z,26.0257,-81.7332,0.38,58.8,1111122 
NERRS,ioos:station:NOAA.NERRS:rkblhwq:1,2016-05-10T04:45:00Z,26.0257,-81.7332,0.43,58.5,1111122 
NERRS,ioos:station:NOAA.NERRS:rkblhwq:1,2016-05-10T05:45:00Z,26.0257,-81.7332,0.54,58.5,1111122 
NERRS,ioos:station:NOAA.NERRS:rkblhwq:1,2016-05-10T06:45:00Z,26.0257,-81.7332,0.67,58.5,1111122 
NERRS,ioos:station:NOAA.NERRS:rkblhwq:1,2016-05-10T07:45:00Z,26.0257,-81.7332,0.83,58.4,1111122 
NERRS,ioos:station:NOAA.NERRS:rkblhwq:1,2016-05-10T13:45:00Z,26.0257,-81.7332,0.89,58.3,1111122 
NERRS,ioos:station:NOAA.NERRS:rkblhwq:1,2016-05-10T15:45:00Z,26.0257,-81.7332,0.99,58.3,1111122 
NERRS,ioos:station:NOAA.NERRS:rkblhwq:1,2016-05-10T16:45:00Z,26.0257,-81.7332,1.08,58.2,1111122 
NERRS,ioos:station:NOAA.NERRS:rkblhwq:1,2016-05-10T17:45:00Z,26.0257,-81.7332,1.16,58.1,1111122 
NERRS,ioos:station:NOAA.NERRS:rkblhwq:1,2016-05-10T18:45:00Z,26.0257,-81.7332,1.25,57.9,1111122 
NERRS,ioos:station:NOAA.NERRS:rkblhwq:1,2016-05-10T19:45:00Z,26.0257,-81.7332,1.31,57.9,1111122 
NERRS,ioos:station:NOAA.NERRS:rkblhwq:1,2016-05-10T20:45:00Z,26.0257,-81.7332,1.34,57.7,1111122 
NERRS,ioos:station:NOAA.NERRS:rkblhwq:1,2016-05-10T21:45:00Z,26.0257,-81.7332,1.32,58.0,1111122 
NERRS,ioos:station:NOAA.NERRS:rkblhwq:1,2016-05-10T22:45:00Z,26.0257,-81.7332,1.23,57.9,1111122 
NERRS,ioos:station:NOAA.NERRS:rkblhwq:1,2016-05-10T23:45:00Z,26.0257,-81.7332,1.09,57.8,1111122 
NERRS,ioos:station:NOAA.NERRS:rkblhwq:1,2016-05-11T00:45:00Z,26.0257,-81.7332,0.94,57.9,1111122 
NERRS,ioos:station:NOAA.NERRS:rkblhwq:1,2016-05-11T01:45:00Z,26.0257,-81.7332,0.77,58.2,1111122 
NERRS,ioos:station:NOAA.NERRS:rkblhwq:1,2016-05-11T02:45:00Z,26.0257,-81.7332,0.62,58.1,1111122 
NERRS,ioos:station:NOAA.NERRS:rkblhwq:1,2016-05-11T03:45:00Z,26.0257,-81.7332,0.5,58.1,1111122 
NERRS,ioos:station:NOAA.NERRS:rkblhwq:1,2016-05-11T04:45:00Z,26.0257,-81.7332,0.43,58.0,1111122 
NERRS,ioos:station:NOAA.NERRS:rkblhwq:1,2016-05-11T05:45:00Z,26.0257,-81.7332,0.49,57.9,1111122 
NERRS,ioos:station:NOAA.NERRS:rkblhwq:1,2016-05-11T06:45:00Z,26.0257,-81.7332,0.6,57.8,1111122 
NERRS,ioos:station:NOAA.NERRS:rkblhwq:1,2016-05-11T07:45:00Z,26.0257,-81.7332,0.73,57.8,1111122 
NERRS,ioos:station:NOAA.NERRS:rkblhwq:1,2016-05-11T08:45:00Z,26.0257,-81.7332,0.88,57.7,1111122 
NERRS,ioos:station:NOAA.NERRS:rkblhwq:1,2016-05-11T09:45:00Z,26.0257,-81.7332,1.0,57.4,1111122 
NERRS,ioos:station:NOAA.NERRS:rkblhwq:1,2016-05-11T10:45:00Z,26.0257,-81.7332,1.05,57.6,1111122 
NERRS,ioos:station:NOAA.NERRS:rkblhwq:1,2016-05-11T11:45:00Z,26.0257,-81.7332,0.99,57.6,1111122 
NERRS,ioos:station:NOAA.NERRS:rkblhwq:1,2016-05-11T12:45:00Z,26.0257,-81.7332,0.92,57.5,1111122 
NERRS,ioos:station:NOAA.NERRS:rkblhwq:1,2016-05-11T13:45:00Z,26.0257,-81.7332,0.86,57.5,1111122 